Temperature
23 24 25 25 25 24 22 20 19 19 18 18 17 17 20 20 20 19 18 18 17 17 16 15 14 14 13 13 12 12 11 11 11 10 10 9 9 9 8 8 8 8 7 7
22 24 24 24 25 25 24 23 21 20 19 18 20 20 20 20 19 18 18 18 17 17 16 15 14 13 13 12 12 11 11 11 10 10 9 9 9 8 8 8 7 7 7 7
20 21 22 22 24 25 24 24 22 20 19 18 18 19 19 19 19 19 18 18 17 16 15 15 14 13 13 12 12 11 11 10 10 9 9 9 8 8 7 7 7 7 7 7
19 20 22 21 23 25 23 23 21 20 19 19 19 20 20 20 19 19 18 17 17 16 15 14 14 13 12 12 11 11 10 10 9 9 8 8 8 8 7 7 7 7 7 7
18 20 21 22 24 24 22 21 20 19 19 19 19 18 18 19 19 19 18 17 16 15 15 14 13 13 12 11 11 10 10 9 9 8 8 8 7 7 7 7 7 7 7 7
19 20 20 21 23 24 21 20 21 20 19 20 19 16 17 19 19 18 18 17 16 15 15 14 13 12 12 11 10 10 9 9 8 8 7 7 7 7 7 7 7 7 8 8
19 19 19 22 24 24 21 20 22 22 22 22 20 19 21 20 19 18 18 17 16 15 14 14 13 12 11 10 10 9 9 8 8 7 7 7 7 7 7 7 7 7 7 8
18 19 20 23 24 22 21 23 24 23 23 22 22 21 21 20 19 18 18 17 16 15 14 13 12 12 11 10 9 9 8 8 8 7 7 7 7 7 7 7 7 7 7 7
19 19 22 25 25 26 25 24 24 23 23 23 22 21 21 20 19 18 18 17 16 15 14 13 12 11 10 9 9 8 8 8 7 7 7 7 7 7 7 7 7 7 7 7
20 19 22 25 26 26 25 25 25 24 23 23 22 22 21 20 19 18 18 17 16 15 14 13 12 11 10 9 8 8 8 7 7 7 7 7 7 7 7 7 7 7 7 7
19 19 23 25 26 26 25 25 25 24 24 23 23 22 21 20 19 18 18 17 16 15 14 13 12 11 10 9 8 8 8 7 7 7 7 7 7 7 8 8 8 7 7 7
19 22 20 24 26 26 25 25 25 24 23 23 23 22 21 20 19 19 18 17 16 15 14 13 12 11 10 9 8 8 8 7 7 7 7 7 7 8 9 8 8 8 8 7
24 25 25 25 25 25 25 25 25 24 24 23 23 22 21 20 19 18 18 17 16 15 14 13 12 11 10 9 9 8 7 7 7 7 7 7 7 7 8 9 9 8 8 8
25 25 25 25 25 25 25 24 24 24 24 23 23 22 21 20 19 18 18 17 16 15 14 13 13 12 10 9 9 8 7 7 7 7 7 7 7 8 8 8 8 9 8 8
24 24 24 24 24 24 24 24 23 23 23 23 22 21 21 20 19 18 17 16 16 15 14 13 13 12 10 9 9 8 7 7 7 7 7 7 7 8 8 8 8 8 8 8
22 22 22 22 21 21 21 21 21 21 22 22 21 21 20 19 18 17 17 16 15 15 14 14 13 12 10 10 9 8 8 7 7 7 7 7 7 8 8 8 8 8 8 8
19 18 18 18 18 18 18 19 19 20 20 20 20 20 19 18 17 17 16 16 15 15 14 14 13 12 11 10 9 9 8 7 7 7 7 7 7 8 8 8 8 8 8 8
16 16 16 16 16 16 17 17 18 18 19 19 19 19 18 18 17 17 16 16 15 15 14 13 12 11 11 10 9 8 8 7 7 7 7 7 7 8 8 8 8 8 8 8
15 15 15 15 15 15 16 16 16 17 17 17 18 18 18 18 17 17 16 15 15 14 14 13 12 11 11 10 9 8 8 7 7 7 7 7 7 8 8 8 8 8 8 8
14 14 14 14 15 15 15 15 15 16 16 16 16 16 16 16 16 16 15 15 15 14 13 13 12 11 10 10 9 8 8 7 7 7 7 7 7 8 8 8 8 8 8 8
13 13 13 13 14 14 14 14 14 14 14 14 14 14 15 15 15 15 15 15 14 14 13 12 11 11 10 9 9 8 7 7 7 6 6 7 7 7 8 8 8 8 8 8
12 12 12 12 12 13 13 13 13 13 13 13 13 13 14 14 14 14 14 14 13 13 12 11 11 10 9 9 8 7 7 6 6 6 6 6 7 7 8 8 8 8 8 8
12 12 12 12 12 12 12 12 12 12 12 12 12 12 12 13 13 13 13 13 13 12 11 11 10 9 9 8 8 7 6 6 6 6 6 6 6 7 7 8 8 8 8 8
11 11 11 12 12 12 12 11 11 11 11 11 11 12 12 12 12 12 12 12 12 11 11 10 9 9 8 8 7 7 6 6 6 6 5 5 6 6 7 7 8 8 8 8
11 11 11 11 11 11 11 11 11 11 11 11 11 11 11 11 11 11 11 11 11 10 10 9 8 8 7 7 6 6 6 5 5 5 5 5 5 6 7 7 8 8 8 8
10 10 10 11 11 11 10 10 10 10 10 10 10 10 10 10 10 10 10 10 9 9 8 8 7 7 6 6 6 6 5 5 4 4 4 4 5 6 6 7 8 8 8 8
9 10 10 10 10 10 10 10 10 10 10 10 9 9 9 9 9 9 9 9 8 8 7 7 6 6 6 5 5 5 4 4 3 3 3 4 4 5 6 7 7 8 8 8
Wind_Speed
5 6 5 6 5 3 6 9 8 9 11 11 11 11 11 10 9 7 7 6 6 5 4 5 6 6 6 6 6 5 5 6 7 8 8 7 7 8 8 8 9 8 9 9
7 8 9 8 6 0 4 6 7 9 7 9 8 7 7 8 8 8 6 5 5 4 4 5 6 6 6 6 6 5 6 7 7 7 7 7 8 8 8 9 9 9 9 10
5 8 7 6 4 2 4 5 8 7 9 8 7 8 8 8 9 7 7 6 6 5 6 6 7 6 6 7 5 5 6 7 7 7 7 8 8 9 9 9 9 10 10 10
1 6 4 9 7 4 6 3 7 9 8 9 8 7 7 9 9 8 8 7 6 5 6 6 5 5 5 5 5 5 6 7 6 6 7 8 9 9 9 9 9 10 11 11
3 2 7 9 6 4 6 3 5 10 9 8 8 5 1 7 8 9 8 7 6 6 5 4 5 5 4 4 5 6 6 7 7 7 8 9 10 10 10 10 10 10 11 11
4 4 6 9 6 5 9 1 5 8 9 9 9 3 5 8 8 9 8 5 5 4 3 4 5 3 3 5 5 6 7 7 7 7 8 10 10 10 9 9 11 11 12 11
5 6 8 8 5 4 3 8 9 10 10 10 9 8 7 8 9 9 8 6 5 3 2 4 4 2 3 5 6 7 7 7 7 8 9 10 9 9 10 11 11 11 12 11
3 2 7 7 3 5 10 7 9 11 11 11 10 10 9 10 10 10 7 6 4 2 3 3 2 1 3 5 6 6 6 7 8 9 9 10 10 10 10 10 11 11 10 10
7 8 9 8 9 9 9 9 10 11 11 12 11 10 11 10 10 9 8 6 4 3 2 2 1 1 3 5 6 6 6 8 9 9 9 9 9 11 10 9 9 9 8 8
5 9 9 9 9 7 9 11 11 12 12 12 12 12 11 10 9 9 7 6 4 3 2 2 3 3 4 5 5 5 7 8 8 9 10 10 9 8 8 9 9 8 7 7
6 9 7 7 7 9 8 9 9 10 12 14 13 11 11 10 10 9 7 6 5 4 4 4 4 4 4 4 3 5 7 8 8 9 9 10 10 9 10 10 10 10 8 6
8 10 7 8 9 8 7 8 10 10 10 10 12 13 12 12 10 9 8 6 5 5 5 5 4 4 5 4 3 5 7 7 7 8 8 9 10 12 14 13 15 14 12 8
10 10 8 8 7 7 7 7 8 10 11 10 10 12 13 10 9 9 8 7 7 7 6 5 4 4 5 4 4 5 7 7 7 8 9 9 10 10 12 14 12 10 11 10
10 6 3 3 5 6 5 5 4 3 6 9 11 10 11 9 8 9 9 9 8 7 6 5 4 5 5 4 5 6 7 9 9 7 8 9 10 10 9 10 10 7 6 9
7 4 3 1 4 4 2 3 4 3 1 5 9 11 12 11 11 9 8 7 7 6 6 6 5 5 5 4 5 6 7 6 7 7 8 9 9 9 9 9 8 7 5 4
3 7 10 11 11 10 10 9 7 6 3 3 7 10 11 11 10 8 8 8 7 6 7 7 6 5 5 5 5 5 6 10 10 8 8 9 9 9 9 8 8 7 6 5
16 14 12 12 13 14 13 12 9 8 6 1 4 8 9 9 9 8 8 9 9 9 8 7 7 6 5 5 5 5 5 7 12 9 8 8 9 9 8 8 7 6 6 5
16 15 14 13 12 14 15 15 14 12 8 2 3 7 9 10 11 11 11 9 8 7 7 7 7 6 5 5 4 4 5 5 6 7 7 8 9 9 8 8 7 7 6 5
18 17 16 16 14 13 13 13 14 12 10 6 1 4 8 10 10 10 9 8 9 8 7 8 10 7 5 5 3 3 5 6 6 6 7 9 10 8 8 8 7 7 6 5
15 14 14 14 15 14 14 14 14 13 12 9 6 5 6 8 9 9 9 9 9 7 7 8 7 5 4 3 3 3 5 5 5 6 7 7 8 9 8 8 8 7 6 5
13 13 13 13 13 13 13 13 13 12 12 11 9 8 9 9 8 7 7 8 8 6 6 8 6 5 3 2 4 3 4 3 4 5 6 8 8 9 8 8 8 7 6 5
10 10 11 10 11 11 11 11 11 11 11 10 10 9 9 8 8 7 7 7 5 6 5 4 5 6 5 2 2 2 2 3 4 5 6 7 8 9 9 9 8 7 6 6
8 8 9 10 10 11 11 10 9 8 8 9 8 9 8 7 5 5 6 5 4 7 6 5 7 8 5 1 0 1 2 3 4 5 5 6 7 8 9 9 8 7 7 7
10 11 11 11 10 9 10 10 9 7 7 7 7 8 7 6 6 5 5 4 7 8 6 8 10 7 3 1 2 3 3 3 4 5 5 6 7 8 8 9 8 8 8 8
12 11 11 11 10 8 8 7 7 7 7 7 8 8 7 5 5 4 3 2 5 6 4 6 7 4 3 3 4 4 3 4 4 5 6 6 7 8 8 9 9 8 8 7
10 10 9 8 7 6 5 4 5 5 5 6 7 7 7 6 6 3 1 1 4 5 4 3 4 5 5 5 5 5 4 5 6 5 6 7 8 8 8 9 11 8 7 7
9 7 6 6 6 6 6 5 5 5 5 4 5 6 6 5 5 4 2 2 4 5 6 6 7 7 6 6 6 6 5 5 5 6 6 7 7 7 8 10 8 7 7 7
Wind_Direction
262 290 327 313 287 204 159 169 164 181 175 199 197 191 192 190 189 173 169 183 198 215 239 256 262 259 256 254 250 250 259 266 267 271 273 274 277 277 276 272 273 264 261 260
326 319 329 321 312 219 142 148 140 136 181 208 198 189 191 182 159 150 170 191 196 211 245 266 268 264 259 251 252 252 262 268 273 281 283 283 283 284 283 279 275 270 265 264
294 312 353 319 273 165 149 161 151 165 188 187 184 186 177 157 150 169 192 199 212 239 254 264 267 257 251 249 253 261 268 273 280 285 288 288 293 295 288 285 280 276 271 267
239 9 319 259 264 167 135 113 140 141 160 170 169 164 168 167 171 189 198 207 232 248 259 266 262 260 256 256 265 274 279 283 286 289 292 293 292 290 287 283 282 279 276 271
151 223 272 289 286 174 127 50 140 140 153 154 147 104 250 209 190 194 201 207 222 233 242 259 272 266 263 275 282 287 288 289 289 293 297 298 298 296 293 291 289 282 277 274
167 201 247 258 268 130 98 106 216 160 163 163 141 131 249 229 202 195 198 205 216 232 248 278 280 270 273 284 292 290 288 289 289 292 296 298 297 296 294 291 288 286 283 278
209 229 257 248 226 97 114 231 213 185 178 172 177 199 209 194 188 189 191 198 194 207 259 270 273 275 291 296 293 287 290 293 295 296 296 296 296 296 296 295 293 289 287 285
183 212 264 246 204 178 215 211 197 190 186 184 195 202 189 176 178 179 181 188 190 213 267 281 282 301 305 295 286 291 299 303 302 300 304 311 303 302 298 295 295 293 291 293
190 215 235 231 218 217 187 190 201 194 194 180 180 188 182 177 176 180 182 192 198 201 258 294 271 184 287 284 291 303 311 309 305 305 304 301 300 301 303 298 296 294 291 291
263 266 256 250 246 234 202 202 205 194 187 176 182 185 179 173 177 181 188 193 187 181 208 240 242 252 261 281 299 312 311 308 307 310 309 307 303 297 297 297 297 292 288 287
288 287 303 287 244 226 218 213 206 199 190 186 180 180 176 176 181 186 188 187 177 180 200 225 239 256 269 282 302 309 307 305 307 307 306 309 306 298 293 285 278 273 276 269
248 249 225 248 253 239 228 229 213 200 203 197 183 179 174 178 182 182 181 175 175 182 197 221 235 253 269 266 281 304 308 309 309 310 310 309 310 311 300 288 284 267 250 243
240 240 218 239 254 229 205 204 201 201 204 199 190 176 170 175 181 175 172 174 181 189 198 209 227 254 264 259 281 295 296 302 307 307 309 310 310 309 312 314 307 282 255 247
254 228 242 280 269 246 218 202 191 216 214 194 182 173 168 166 167 172 178 183 181 181 190 202 222 252 255 260 283 293 294 302 308 303 305 307 306 303 300 302 309 308 277 249
270 223 207 329 12 358 5 37 36 350 271 190 176 170 168 166 171 181 182 175 168 179 202 216 234 249 248 260 280 289 293 295 302 303 305 305 304 302 301 301 298 297 296 274
26 42 49 51 45 35 34 35 27 360 347 190 180 177 172 166 165 168 175 175 175 203 222 226 232 232 233 260 281 286 287 305 315 309 309 310 309 306 307 306 302 299 295 277
58 46 40 38 36 33 29 25 17 6 10 36 182 170 155 151 159 174 193 199 199 210 217 216 217 211 226 253 268 276 286 303 314 313 309 309 310 308 306 304 301 298 291 278
57 55 51 45 37 31 24 19 15 12 8 11 130 149 160 170 185 198 204 203 210 227 232 214 196 202 233 255 259 265 282 289 298 305 310 313 315 311 310 306 303 302 297 295
42 39 36 33 28 24 18 12 7 3 1 4 13 199 203 204 206 208 201 200 212 231 234 202 193 201 231 248 251 271 285 294 302 312 316 318 322 318 317 314 308 306 304 300
34 29 25 21 17 11 4 359 356 352 345 333 308 276 255 244 232 219 207 214 223 222 203 184 186 197 213 236 282 282 289 296 311 325 327 325 324 322 320 318 316 313 312 312
20 16 12 7 0 354 348 343 338 331 325 322 309 288 271 262 252 233 222 238 249 219 186 177 173 177 187 235 293 290 294 313 333 337 333 331 328 325 324 323 321 322 320 315
2 357 350 342 337 330 324 322 320 319 320 320 317 311 301 288 276 264 244 240 239 181 168 163 164 178 187 227 277 299 326 354 356 345 337 335 333 329 327 326 323 324 322 316
336 328 322 316 312 307 309 313 313 317 321 322 323 322 314 302 292 271 269 252 200 177 167 166 177 182 185 189 322 33 37 20 5 347 338 335 332 329 327 327 328 326 323 322
320 313 308 304 308 313 312 309 310 316 322 324 325 325 323 322 320 301 278 224 182 167 162 173 181 181 158 100 70 62 45 26 3 346 340 336 333 332 330 331 331 329 327 328
307 306 304 307 309 306 302 306 318 327 334 333 331 335 336 326 308 306 305 199 168 156 155 174 173 138 96 82 74 64 51 29 8 350 344 340 338 334 332 333 333 332 335 340
302 302 298 294 294 299 302 309 318 317 326 328 325 329 333 334 332 330 314 141 132 129 116 108 106 100 88 79 69 60 45 19 7 359 348 342 337 336 334 335 334 337 342 351
303 306 310 318 317 316 315 315 316 314 312 316 317 321 331 339 347 352 22 90 102 96 93 92 90 84 77 68 60 51 36 17 5 357 349 341 337 334 333 333 337 342 351 358
Height
1504 1498 1494 1494 1491 1490 1498 1505 1514 1513 1515 1512 1509 1507 1507 1507 1507 1507 1507 1507 1505 1503 1501 1499 1496 1493 1490 1488 1485 1482 1479 1476 1473 1469 1466 1463 1459 1456 1453 1450 1447 1445 1442 1440
1506 1496 1494 1493 1488 1486 1490 1493 1499 1506 1509 1503 1503 1504 1503 1503 1503 1504 1504 1503 1502 1499 1497 1494 1491 1489 1486 1483 1481 1478 1475 1471 1468 1464 1461 1457 1453 1450 1446 1443 1440 1437 1435 1432
1517 1505 1500 1505 1490 1487 1488 1487 1493 1502 1502 1499 1502 1501 1500 1500 1500 1500 1500 1499 1498 1495 1493 1490 1487 1484 1482 1479 1476 1473 1470 1466 1463 1459 1455 1451 1447 1443 1439 1436 1432 1429 1427 1424
1517 1515 1519 1505 1482 1480 1484 1486 1486 1490 1493 1494 1496 1496 1496 1496 1497 1497 1496 1495 1494 1491 1489 1486 1483 1480 1478 1475 1472 1468 1465 1461 1458 1454 1449 1445 1441 1436 1432 1429 1425 1422 1419 1417
1519 1520 1513 1495 1482 1480 1486 1493 1487 1489 1491 1493 1494 1495 1495 1494 1493 1493 1492 1491 1490 1488 1485 1483 1480 1476 1473 1470 1467 1463 1460 1456 1452 1448 1443 1439 1434 1430 1426 1422 1419 1415 1412 1409
1513 1517 1519 1499 1480 1476 1484 1496 1487 1486 1487 1488 1490 1497 1493 1490 1490 1489 1489 1488 1486 1484 1482 1479 1476 1472 1469 1466 1462 1458 1454 1450 1446 1442 1437 1433 1428 1424 1420 1416 1413 1409 1406 1403
1510 1513 1503 1483 1476 1477 1495 1494 1481 1481 1481 1482 1483 1486 1485 1485 1485 1486 1485 1484 1483 1480 1478 1475 1472 1468 1465 1461 1457 1453 1449 1445 1441 1437 1432 1427 1423 1419 1415 1411 1407 1404 1400 1397
1508 1510 1503 1476 1474 1479 1479 1472 1473 1474 1475 1476 1477 1478 1480 1480 1481 1481 1481 1480 1479 1476 1474 1471 1467 1464 1460 1456 1452 1447 1443 1439 1435 1431 1427 1422 1418 1414 1410 1407 1402 1399 1395 1391
1494 1493 1476 1470 1469 1468 1467 1467 1468 1469 1470 1471 1472 1473 1474 1475 1476 1476 1476 1476 1474 1472 1469 1466 1463 1459 1455 1451 1446 1442 1438 1434 1430 1425 1421 1418 1414 1409 1406 1402 1398 1394 1390 1386
1482 1475 1468 1466 1465 1464 1463 1463 1462 1463 1464 1465 1466 1467 1469 1469 1470 1471 1471 1470 1469 1467 1465 1462 1458 1455 1450 1446 1441 1437 1433 1429 1425 1421 1417 1413 1410 1406 1402 1398 1394 1390 1386 1381
1478 1470 1465 1462 1461 1460 1459 1459 1459 1459 1459 1460 1461 1462 1463 1463 1464 1465 1465 1465 1464 1462 1460 1457 1454 1450 1445 1441 1437 1433 1429 1425 1421 1417 1413 1409 1405 1402 1398 1394 1391 1386 1382 1378
1475 1465 1463 1459 1457 1456 1455 1455 1454 1454 1455 1455 1456 1456 1457 1457 1459 1459 1460 1460 1459 1457 1455 1453 1449 1445 1441 1437 1433 1429 1424 1420 1417 1414 1410 1406 1402 1397 1394 1391 1387 1383 1379 1375
1461 1459 1456 1454 1453 1452 1451 1450 1450 1450 1450 1450 1450 1450 1451 1452 1453 1454 1455 1455 1454 1453 1451 1448 1445 1442 1438 1434 1429 1425 1421 1417 1413 1410 1407 1403 1399 1395 1390 1387 1383 1380 1376 1372
1455 1453 1451 1450 1449 1448 1447 1447 1447 1447 1446 1446 1445 1446 1446 1447 1448 1449 1450 1450 1450 1448 1446 1444 1441 1438 1434 1430 1426 1422 1418 1414 1411 1407 1404 1400 1396 1392 1388 1384 1380 1377 1374 1370
1449 1448 1447 1445 1444 1444 1444 1443 1443 1443 1442 1441 1441 1441 1442 1443 1444 1446 1447 1447 1446 1445 1443 1440 1437 1434 1431 1426 1422 1419 1415 1411 1408 1404 1401 1397 1393 1390 1386 1382 1378 1375 1371 1369
1445 1445 1444 1443 1444 1444 1443 1442 1441 1440 1439 1438 1437 1437 1438 1439 1440 1442 1443 1443 1442 1440 1438 1435 1433 1430 1427 1423 1419 1416 1412 1409 1405 1401 1398 1394 1390 1387 1383 1380 1376 1373 1369 1367
1445 1446 1446 1446 1446 1446 1445 1444 1442 1440 1438 1437 1436 1436 1436 1437 1437 1437 1438 1438 1437 1435 1433 1430 1428 1425 1423 1419 1416 1412 1409 1406 1402 1399 1395 1392 1388 1385 1381 1377 1374 1371 1367 1365
1452 1453 1452 1451 1450 1449 1447 1446 1444 1442 1440 1439 1437 1436 1435 1434 1433 1433 1433 1432 1432 1430 1428 1426 1423 1421 1419 1416 1413 1409 1406 1402 1399 1396 1393 1389 1386 1383 1379 1376 1372 1369 1365 1363
1456 1455 1455 1454 1453 1451 1450 1448 1446 1445 1443 1441 1439 1437 1434 1432 1431 1430 1429 1428 1426 1424 1423 1421 1419 1417 1415 1413 1410 1406 1403 1399 1396 1393 1390 1387 1384 1381 1378 1374 1371 1367 1364 1361
1460 1459 1457 1455 1454 1453 1451 1448 1446 1445 1443 1442 1439 1436 1433 1430 1428 1426 1424 1422 1421 1419 1418 1416 1414 1413 1411 1409 1406 1403 1399 1396 1393 1390 1388 1385 1382 1379 1376 1373 1370 1366 1363 1360
1462 1460 1458 1456 1455 1453 1451 1448 1446 1443 1440 1438 1436 1432 1429 1426 1423 1420 1418 1416 1415 1414 1413 1411 1410 1409 1407 1405 1402 1399 1396 1393 1391 1388 1385 1382 1380 1377 1374 1372 1368 1365 1362 1359
1464 1462 1460 1457 1455 1452 1449 1446 1443 1440 1436 1433 1430 1427 1423 1420 1417 1415 1412 1411 1410 1409 1407 1406 1405 1404 1403 1400 1398 1395 1393 1391 1388 1385 1382 1380 1378 1375 1373 1370 1367 1365 1362 1358
1465 1462 1459 1456 1453 1449 1446 1443 1440 1436 1433 1429 1426 1422 1419 1415 1412 1409 1406 1405 1403 1402 1401 1401 1401 1400 1398 1397 1395 1392 1390 1388 1385 1382 1379 1377 1375 1373 1371 1369 1367 1364 1361 1358
1462 1458 1455 1452 1449 1445 1442 1439 1436 1433 1430 1426 1423 1419 1415 1411 1407 1405 1402 1399 1397 1396 1395 1396 1396 1396 1395 1393 1392 1390 1387 1385 1382 1379 1376 1374 1373 1371 1370 1368 1366 1364 1361 1358
1457 1454 1450 1447 1444 1441 1439 1436 1433 1429 1426 1423 1419 1416 1412 1408 1405 1401 1398 1395 1393 1392 1392 1392 1392 1392 1391 1390 1389 1386 1384 1381 1379 1376 1373 1371 1370 1369 1368 1366 1365 1363 1361 1358
1453 1450 1447 1444 1442 1439 1436 1433 1430 1426 1423 1420 1416 1413 1409 1405 1401 1397 1394 1392 1390 1389 1389 1390 1389 1389 1388 1387 1386 1384 1381 1379 1376 1373 1370 1369 1367 1367 1366 1365 1364 1363 1361 1359
1449 1446 1444 1441 1438 1435 1433 1430 1426 1423 1420 1416 1413 1410 1406 1402 1398 1395 1392 1389 1388 1387 1387 1387 1387 1387 1386 1385 1384 1381 1379 1376 1373 1371 1368 1366 1365 1365 1364 1364 1363 1362 1361 1360